Time,TemperatureF,DewpointF,PressureIn,WindDirection,WindDirectionDegrees,WindSpeedMPH,WindSpeedGustMPH,Humidity,HourlyPrecipIn,Conditions,Clouds,dailyrainin,SoftwareType,DateUTC
2013-05-25 00:09:00,47.3,43.0,29.98,NNW,346,7.0,-999.0,86,-99.99,,,0.00,weatherlink.com 1.10,2013-05-25 07:09:00,
2013-05-25 00:24:00,47.2,44.0,29.98,NNW,340,5.0,-999.0,87,-99.99,,,0.00,weatherlink.com 1.10,2013-05-25 07:24:00,
2013-05-25 00:40:00,47.3,44.0,29.98,North,355,4.0,-999.0,87,-99.99,,,0.00,weatherlink.com 1.10,2013-05-25 07:40:00,
2013-05-25 00:54:00,46.7,43.0,29.98,NNW,348,6.0,-999.0,86,-99.99,,,0.00,weatherlink.com 1.10,2013-05-25 07:54:00,
2013-05-25 01:09:00,46.7,43.0,29.98,NNE,19,3.0,-999.0,88,-99.99,,,0.00,weatherlink.com 1.10,2013-05-25 08:09:00,
2013-05-25 01:24:00,45.9,42.0,29.98,NNE,26,3.0,-999.0,87,-99.99,,,0.00,weatherlink.com 1.10,2013-05-25 08:24:00,
2013-05-25 01:39:00,45.2,42.0,29.98,North,9,2.0,-999.0,87,-99.99,,,0.00,weatherlink.com 1.10,2013-05-25 08:39:00,
2013-05-25 01:54:00,44.7,41.0,29.97,NNE,26,4.0,-999.0,88,-99.99,,,0.00,weatherlink.com 1.10,2013-05-25 08:54:00,
2013-05-25 02:09:00,44.5,41.0,29.97,NNE,23,1.0,-999.0,88,-99.99,,,0.00,weatherlink.com 1.10,2013-05-25 09:09:00,
2013-05-25 02:24:00,44.2,41.0,29.96,North,5,1.0,-999.0,89,-99.99,,,0.00,weatherlink.com 1.10,2013-05-25 09:24:00,
2013-05-25 02:40:00,44.3,41.0,29.96,North,5,1.0,-999.0,89,-99.99,,,0.00,weatherlink.com 1.10,2013-05-25 09:40:00,
2013-05-25 02:54:00,44.5,42.0,29.96,NNW,348,5.0,-999.0,89,-99.99,,,0.00,weatherlink.com 1.10,2013-05-25 09:54:00,
2013-05-25 03:08:00,44.5,42.0,29.96,NNE,16,3.0,-999.0,89,-99.99,,,0.00,weatherlink.com 1.10,2013-05-25 10:08:00,
2013-05-25 03:24:00,44.5,42.0,29.96,North,5,4.0,-999.0,89,-99.99,,,0.00,weatherlink.com 1.10,2013-05-25 10:24:00,
2013-05-25 03:39:00,44.2,41.0,29.96,NNE,13,2.0,-999.0,88,-99.99,,,0.00,weatherlink.com 1.10,2013-05-25 10:39:00,
2013-05-25 03:54:00,44.5,42.0,29.96,North,11,3.0,-999.0,89,-99.99,,,0.00,weatherlink.com 1.10,2013-05-25 10:54:00,
2013-05-25 04:08:00,44.5,41.0,29.96,North,360,4.0,-999.0,88,-99.99,,,0.00,weatherlink.com 1.10,2013-05-25 11:08:00,
2013-05-25 04:25:00,44.5,41.0,29.96,NNE,16,3.0,-999.0,88,-99.99,,,0.00,weatherlink.com 1.10,2013-05-25 11:25:00,
2013-05-25 04:39:00,44.5,41.0,29.96,NNE,30,4.0,-999.0,88,-99.99,,,0.00,weatherlink.com 1.10,2013-05-25 11:39:00,
2013-05-25 04:54:00,44.7,42.0,29.96,NNE,22,3.0,-999.0,89,-99.99,,,0.00,weatherlink.com 1.10,2013-05-25 11:54:00,
2013-05-25 05:08:00,44.7,42.0,29.96,NNE,17,3.0,-999.0,89,-99.99,,,0.00,weatherlink.com 1.10,2013-05-25 12:08:00,
2013-05-25 05:24:00,44.5,42.0,29.96,NE,53,3.0,-999.0,89,-99.99,,,0.00,weatherlink.com 1.10,2013-05-25 12:24:00,
2013-05-25 05:39:00,44.5,42.0,29.96,North,5,3.0,-999.0,89,-99.99,,,0.00,weatherlink.com 1.10,2013-05-25 12:39:00,
2013-05-25 05:54:00,44.3,41.0,29.96,NNW,338,7.0,-999.0,89,-99.99,,,0.00,weatherlink.com 1.10,2013-05-25 12:54:00,
2013-05-25 06:09:00,44.4,41.0,29.97,North,355,4.0,-999.0,89,-99.99,,,0.00,weatherlink.com 1.10,2013-05-25 13:09:00,
2013-05-25 06:25:00,44.5,42.0,29.97,NNE,19,2.0,-999.0,89,-99.99,,,0.00,weatherlink.com 1.10,2013-05-25 13:25:00,
2013-05-25 06:39:00,44.9,42.0,29.98,North,355,8.0,-999.0,89,-99.99,,,0.00,weatherlink.com 1.10,2013-05-25 13:39:00,
2013-05-25 06:54:00,45.1,42.0,29.98,NNE,15,2.0,-999.0,89,-99.99,,,0.00,weatherlink.com 1.10,2013-05-25 13:54:00,
2013-05-25 07:09:00,45.6,43.0,29.98,NNW,344,4.0,-999.0,89,-99.99,,,0.00,weatherlink.com 1.10,2013-05-25 14:09:00,
2013-05-25 07:24:00,46.9,44.0,29.98,NNW,329,10.0,-999.0,89,-99.99,,,0.00,weatherlink.com 1.10,2013-05-25 14:24:00,
2013-05-25 07:39:00,47.9,45.0,29.99,NW,317,8.0,-999.0,88,-99.99,,,0.00,weatherlink.com 1.10,2013-05-25 14:39:00,
2013-05-25 07:54:00,48.3,45.0,29.99,NNW,344,6.0,-999.0,87,-99.99,,,0.00,weatherlink.com 1.10,2013-05-25 14:54:00,
2013-05-25 08:09:00,48.8,45.0,29.99,NNW,327,11.0,-999.0,86,-99.99,,,0.00,weatherlink.com 1.10,2013-05-25 15:09:00,
2013-05-25 08:24:00,49.1,45.0,29.99,North,355,6.0,-999.0,86,-99.99,,,0.00,weatherlink.com 1.10,2013-05-25 15:24:00,
2013-05-25 08:39:00,49.7,45.0,29.99,NW,325,11.0,-999.0,84,-99.99,,,0.00,weatherlink.com 1.10,2013-05-25 15:39:00,
2013-05-25 08:53:00,50.3,46.0,29.99,NW,325,6.0,-999.0,84,-99.99,,,0.00,weatherlink.com 1.10,2013-05-25 15:53:00,
2013-05-25 09:08:00,51.0,46.0,29.99,NNE,21,6.0,-999.0,84,-99.99,,,0.00,weatherlink.com 1.10,2013-05-25 16:08:00,
2013-05-25 09:23:00,51.0,46.0,29.99,NNW,331,11.0,-999.0,84,-99.99,,,0.00,weatherlink.com 1.10,2013-05-25 16:23:00,
2013-05-25 09:38:00,51.9,47.0,29.98,North,350,6.0,-999.0,83,-99.99,,,0.00,weatherlink.com 1.10,2013-05-25 16:38:00,
2013-05-25 09:54:00,52.0,47.0,29.98,North,350,12.0,-999.0,82,-99.99,,,0.00,weatherlink.com 1.10,2013-05-25 16:54:00,
2013-05-25 10:09:00,52.3,47.0,29.98,North,355,10.0,-999.0,83,-99.99,,,0.00,weatherlink.com 1.10,2013-05-25 17:09:00,
2013-05-25 10:24:00,52.9,47.0,29.99,NNW,336,10.0,-999.0,81,-99.99,,,0.00,weatherlink.com 1.10,2013-05-25 17:24:00,
2013-05-25 10:39:00,53.1,47.0,29.99,NW,319,16.0,-999.0,80,-99.99,,,0.00,weatherlink.com 1.10,2013-05-25 17:39:00,
2013-05-25 10:55:00,53.0,47.0,29.99,NNW,346,9.0,-999.0,80,-99.99,,,0.00,weatherlink.com 1.10,2013-05-25 17:55:00,
2013-05-25 11:09:00,53.4,47.0,30.00,NNW,334,14.0,-999.0,80,-99.99,,,0.00,weatherlink.com 1.10,2013-05-25 18:09:00,
2013-05-25 11:24:00,53.7,47.0,30.00,North,355,8.0,-999.0,79,-99.99,,,0.00,weatherlink.com 1.10,2013-05-25 18:24:00,
2013-05-25 11:39:00,54.0,47.0,30.00,North,349,16.0,-999.0,78,-99.99,,,0.00,weatherlink.com 1.10,2013-05-25 18:39:00,
2013-05-25 11:54:00,54.5,48.0,30.01,North,10,14.0,-999.0,78,-99.99,,,0.00,weatherlink.com 1.10,2013-05-25 18:54:00,
2013-05-25 12:09:00,54.9,48.0,30.01,NE,43,12.0,-999.0,77,-99.99,,,0.00,weatherlink.com 1.10,2013-05-25 19:09:00,
2013-05-25 12:24:00,55.1,48.0,30.01,NNW,345,17.0,-999.0,78,-99.99,,,0.00,weatherlink.com 1.10,2013-05-25 19:24:00,
2013-05-25 12:39:00,55.7,49.0,30.02,NNW,332,13.0,-999.0,77,-99.99,,,0.00,weatherlink.com 1.10,2013-05-25 19:39:00,
2013-05-25 12:55:00,55.9,48.0,30.02,NNW,328,11.0,-999.0,74,-99.99,,,0.00,weatherlink.com 1.10,2013-05-25 19:55:00,
2013-05-25 13:09:00,56.3,48.0,30.02,NNE,15,12.0,-999.0,74,-99.99,,,0.00,weatherlink.com 1.10,2013-05-25 20:09:00,
2013-05-25 13:24:00,55.5,47.0,30.03,NNW,336,7.0,-999.0,74,-99.99,,,0.00,weatherlink.com 1.10,2013-05-25 20:24:00,
2013-05-25 13:40:00,55.6,48.0,30.02,NW,325,11.0,-999.0,75,-99.99,,,0.00,weatherlink.com 1.10,2013-05-25 20:40:00,
2013-05-25 13:54:00,55.8,48.0,30.03,NNE,27,12.0,-999.0,74,-99.99,,,0.00,weatherlink.com 1.10,2013-05-25 20:54:00,
2013-05-25 14:09:00,56.6,48.0,30.02,NNW,346,12.0,-999.0,74,-99.99,,,0.00,weatherlink.com 1.10,2013-05-25 21:09:00,
2013-05-25 14:23:00,56.4,48.0,30.02,North,360,16.0,-999.0,74,-99.99,,,0.00,weatherlink.com 1.10,2013-05-25 21:23:00,
2013-05-25 14:40:00,57.0,48.0,30.02,NNW,345,17.0,-999.0,72,-99.99,,,0.00,weatherlink.com 1.10,2013-05-25 21:40:00,
2013-05-25 14:54:00,57.5,49.0,30.02,North,355,14.0,-999.0,73,-99.99,,,0.00,weatherlink.com 1.10,2013-05-25 21:54:00,
2013-05-25 15:09:00,57.2,48.0,30.02,NNE,17,12.0,-999.0,72,-99.99,,,0.00,weatherlink.com 1.10,2013-05-25 22:09:00,
2013-05-25 15:24:00,56.5,49.0,30.02,NNW,327,6.0,-999.0,75,-99.99,,,0.00,weatherlink.com 1.10,2013-05-25 22:24:00,
2013-05-25 15:38:00,57.8,49.0,30.02,North,355,16.0,-999.0,73,-99.99,,,0.00,weatherlink.com 1.10,2013-05-25 22:38:00,
2013-05-25 15:55:00,57.2,49.0,30.03,WNW,301,15.0,-999.0,74,-99.99,,,0.00,weatherlink.com 1.10,2013-05-25 22:55:00,
2013-05-25 16:08:00,57.4,49.0,30.03,NNW,333,14.0,-999.0,74,-99.99,,,0.00,weatherlink.com 1.10,2013-05-25 23:08:00,
2013-05-25 16:24:00,57.5,49.0,30.02,NNW,347,11.0,-999.0,74,-99.99,,,0.00,weatherlink.com 1.10,2013-05-25 23:24:00,
2013-05-25 16:39:00,56.9,49.0,30.02,North,355,8.0,-999.0,75,-99.99,,,0.00,weatherlink.com 1.10,2013-05-25 23:39:00,
2013-05-25 16:54:00,56.8,49.0,30.02,NW,313,12.0,-999.0,75,-99.99,,,0.00,weatherlink.com 1.10,2013-05-25 23:54:00,
2013-05-25 17:10:00,57.0,49.0,30.02,NNW,345,7.0,-999.0,75,-99.99,,,0.00,weatherlink.com 1.10,2013-05-26 00:10:00,
2013-05-25 17:25:00,57.5,49.0,30.02,North,355,8.0,-999.0,74,-99.99,,,0.00,weatherlink.com 1.10,2013-05-26 00:25:00,
2013-05-25 17:40:00,57.4,50.0,30.02,NW,311,17.0,-999.0,75,-99.99,,,0.00,weatherlink.com 1.10,2013-05-26 00:40:00,
2013-05-25 17:53:00,56.6,49.0,30.02,North,5,6.0,-999.0,77,-99.99,,,0.00,weatherlink.com 1.10,2013-05-26 00:53:00,
2013-05-25 18:09:00,55.3,49.0,30.02,North,355,6.0,-999.0,79,-99.99,,,0.00,weatherlink.com 1.10,2013-05-26 01:09:00,
2013-05-25 18:24:00,54.8,49.0,30.02,North,5,9.0,-999.0,81,-99.99,,,0.00,weatherlink.com 1.10,2013-05-26 01:24:00,
2013-05-25 18:38:00,54.2,49.0,30.02,NNE,13,4.0,-999.0,82,-99.99,,,0.00,weatherlink.com 1.10,2013-05-26 01:38:00,
2013-05-25 18:54:00,53.9,49.0,30.02,North,9,7.0,-999.0,83,-99.99,,,0.00,weatherlink.com 1.10,2013-05-26 01:54:00,
2013-05-25 19:08:00,53.7,49.0,30.02,NNW,341,7.0,-999.0,84,-99.99,,,0.00,weatherlink.com 1.10,2013-05-26 02:08:00,
2013-05-25 19:23:00,53.7,49.0,30.02,North,360,4.0,-999.0,84,-99.99,,,0.00,weatherlink.com 1.10,2013-05-26 02:23:00,
2013-05-25 19:40:00,53.4,49.0,30.02,NW,313,10.0,-999.0,84,-99.99,,,0.00,weatherlink.com 1.10,2013-05-26 02:40:00,
2013-05-25 19:53:00,53.3,49.0,30.02,ENE,61,7.0,-999.0,85,-99.99,,,0.00,weatherlink.com 1.10,2013-05-26 02:53:00,
2013-05-25 20:10:00,53.2,49.0,30.02,NNE,19,12.0,-999.0,85,-99.99,,,0.00,weatherlink.com 1.10,2013-05-26 03:10:00,
2013-05-25 20:24:00,52.9,49.0,30.02,North,349,4.0,-999.0,86,-99.99,,,0.00,weatherlink.com 1.10,2013-05-26 03:24:00,
2013-05-25 20:39:00,52.4,48.0,30.02,NNW,343,12.0,-999.0,86,-99.99,,,0.00,weatherlink.com 1.10,2013-05-26 03:39:00,
2013-05-25 20:55:00,51.7,48.0,30.02,NNW,329,8.0,-999.0,87,-99.99,,,0.00,weatherlink.com 1.10,2013-05-26 03:55:00,
2013-05-25 21:09:00,51.5,48.0,30.02,North,360,15.0,-999.0,88,-99.99,,,0.00,weatherlink.com 1.10,2013-05-26 04:09:00,
2013-05-25 21:23:00,51.5,48.0,30.02,NW,311,9.0,-999.0,88,-99.99,,,0.00,weatherlink.com 1.10,2013-05-26 04:23:00,
2013-05-25 21:40:00,51.6,48.0,30.03,NNW,347,3.0,-999.0,88,-99.99,,,0.00,weatherlink.com 1.10,2013-05-26 04:40:00,
2013-05-25 21:54:00,51.7,49.0,30.03,NE,36,3.0,-999.0,89,-99.99,,,0.00,weatherlink.com 1.10,2013-05-26 04:54:00,
2013-05-25 22:09:00,52.0,49.0,30.03,North,5,1.0,-999.0,88,-99.99,,,0.00,weatherlink.com 1.10,2013-05-26 05:09:00,
2013-05-25 22:24:00,52.4,49.0,30.03,North,5,3.0,-999.0,89,-99.99,,,0.00,weatherlink.com 1.10,2013-05-26 05:24:00,
2013-05-25 22:39:00,52.8,50.0,30.03,North,360,2.0,-999.0,89,-99.99,,,0.00,weatherlink.com 1.10,2013-05-26 05:39:00,
2013-05-25 22:53:00,53.1,50.0,30.03,North,355,4.0,-999.0,88,-99.99,,,0.00,weatherlink.com 1.10,2013-05-26 05:53:00,
2013-05-25 23:09:00,53.2,50.0,30.03,NNW,342,2.0,-999.0,88,-99.99,,,0.00,weatherlink.com 1.10,2013-05-26 06:09:00,
2013-05-25 23:24:00,53.3,50.0,30.03,North,355,2.0,-999.0,88,-99.99,,,0.00,weatherlink.com 1.10,2013-05-26 06:24:00,
2013-05-25 23:40:00,53.3,50.0,30.03,North,5,1.0,-999.0,88,-99.99,,,0.00,weatherlink.com 1.10,2013-05-26 06:40:00,
2013-05-25 23:55:00,53.3,50.0,30.03,North,5,2.0,-999.0,89,-99.99,,,0.00,weatherlink.com 1.10,2013-05-26 06:55:00,